{"data":{"norad_id":24936,"intl_designator":"1997-050A","name":"AMC-3","alt_names":[],"object_type":"PAYLOAD","status":"ACTIVE","operator":null,"country":"SES","launch_date":"1997-09-04","launch_site_code":"AFETR","launch_vehicle":null,"mission":null,"orbit_class":"UNKNOWN","rcs_meters":8.3589,"size_class":null,"mass_kg":null,"dimensions":null,"purposes":["comms"],"wikipedia_slug":null,"has_3d_model":false,"image_url":null,"decayed_at":null,"tle_current":{"epoch":"2026-05-24T08:27:38.529792Z","epoch_age_seconds":127500,"freshness":"FRESH","line1":"1 24936U 97050A   26144.35252928 -.00000266  00000+0  00000+0 0  9991","line2":"2 24936   8.0897  64.3594 0003024 359.2674 233.2192  1.00270769 52195","mean_motion":1.00270769,"eccentricity":0.0003024,"inclination_deg":8.0897,"raan_deg":64.3594,"arg_perigee_deg":359.2674,"mean_anomaly_deg":233.2192,"bstar":0,"rev_number":5219,"period_min":1436.1114553734,"perigee_km":35774.129084202,"apogee_km":35799.630486353,"semimajor_km":42165.016785278,"source":"CELESTRAK","updated_at":"2026-05-25T13:38:14.471531Z"}}}